Temperature
17 16 16 16 16 15 15 15 15 15 14 14 13 13 13 13 13 13 13 13 13 13 14 14 14 15 15 15 15 15 15 15 15 15 14 15 15 14 14 14 13 13 13
17 17 16 16 16 16 15 15 15 15 14 14 13 13 13 13 13 13 13 13 13 13 13 14 14 14 14 15 15 15 15 15 15 14 14 15 14 14 14 14 13 13 12
18 17 16 16 16 16 15 15 15 15 14 14 14 13 13 13 13 13 13 13 13 13 13 13 13 14 14 15 15 15 15 15 14 14 14 15 14 14 14 14 13 13 12
18 17 17 16 16 16 15 15 15 15 14 14 14 14 14 13 13 13 13 13 13 13 13 13 13 14 14 14 15 15 15 14 14 14 14 14 15 15 14 14 14 14 13
18 17 17 16 16 16 15 15 15 15 14 14 14 14 14 14 14 13 13 13 14 14 14 14 14 14 14 14 14 15 14 14 14 14 14 14 14 15 15 15 14 13 13
18 17 16 16 16 16 16 15 15 15 14 14 14 14 14 14 14 14 14 14 14 14 14 14 14 14 14 15 15 15 15 14 14 14 14 14 14 14 15 15 14 13 13
17 17 16 16 16 16 16 16 16 15 15 14 14 14 14 14 14 14 14 14 13 14 14 14 14 14 14 14 15 15 15 15 14 14 14 14 14 14 14 14 14 14 13
17 16 16 16 16 16 16 16 16 15 15 15 15 14 14 14 14 14 14 14 13 13 14 13 14 14 14 14 14 14 14 15 15 14 14 13 13 13 14 14 14 13 13
16 16 16 16 16 16 16 16 16 15 15 15 15 15 14 14 14 14 14 14 13 13 13 13 14 14 14 14 14 14 14 14 14 14 14 13 13 13 13 13 13 13 12
15 15 15 15 15 15 15 15 15 15 15 15 14 14 14 13 14 14 14 13 13 13 13 13 14 14 14 14 14 14 14 14 14 14 14 14 13 12 12 12 13 13 13
13 13 13 14 14 14 14 14 14 15 15 14 14 14 13 13 13 13 13 13 13 13 13 13 13 14 14 13 13 13 13 13 13 13 13 13 13 12 12 12 12 13 12
12 12 12 12 12 13 13 13 13 13 13 13 13 13 13 13 13 13 12 13 13 12 12 13 13 13 13 13 13 13 13 13 13 13 13 12 12 12 12 12 12 12 12
11 11 11 11 11 11 11 11 12 12 12 12 12 12 12 12 12 12 12 12 12 12 12 12 13 13 13 12 12 12 12 12 12 12 12 12 12 12 12 12 12 11 11
11 11 11 11 10 10 10 10 10 11 11 11 11 11 12 12 12 12 12 12 12 12 12 12 12 12 12 12 12 12 11 11 11 11 11 11 11 11 11 11 11 11 11
11 11 11 10 10 10 10 10 10 10 11 11 11 11 11 11 11 12 12 11 12 12 12 12 11 11 11 11 11 11 11 11 11 11 11 11 11 11 11 11 11 11 11
12 11 11 10 10 10 10 11 11 11 11 11 11 11 11 11 11 11 11 12 12 12 11 11 11 11 11 11 11 11 11 11 11 11 11 11 10 10 10 10 10 11 11
11 11 10 10 10 10 10 11 11 11 11 11 11 11 11 11 11 11 11 11 11 11 11 11 11 11 10 10 10 10 10 10 10 10 10 10 10 10 10 10 10 10 10
11 11 11 10 10 10 10 10 10 10 10 10 10 10 10 10 11 11 11 11 11 11 10 10 10 10 10 10 10 10 10 10 10 10 10 10 10 10 10 10 10 10 10
11 11 10 10 10 10 10 10 10 10 10 10 10 9 9 10 10 10 10 10 10 10 10 10 10 9 9 9 9 9 9 9 9 9 9 9 10 10 10 9 9 9 9
11 11 11 10 10 10 10 10 10 10 10 9 9 9 9 9 9 9 9 9 9 9 9 9 9 9 9 9 9 9 9 9 9 9 9 9 9 9 9 9 9 9 9
11 11 11 10 10 10 10 10 10 10 10 9 9 9 9 9 9 9 9 9 9 9 9 9 9 9 9 9 9 9 9 9 9 9 9 9 9 9 9 9 9 9 9
11 10 10 10 10 10 10 10 10 10 9 9 9 9 9 9 9 9 9 9 9 9 9 9 9 9 9 9 9 9 9 8 8 8 8 8 8 8 8 9 9 9 8
11 10 10 10 10 10 10 10 10 10 9 9 9 9 9 9 9 9 9 9 9 9 9 9 9 9 9 9 9 9 8 8 8 8 8 8 8 8 8 8 8 8 8
10 10 10 10 10 10 10 10 10 10 10 9 9 9 9 9 9 9 9 9 9 9 9 9 9 9 9 9 9 8 8 8 8 8 8 8 8 8 8 8 8 8 8
10 10 10 10 10 10 10 10 10 10 10 10 9 9 9 9 9 9 9 9 9 9 9 9 9 9 8 8 8 8 8 8 8 8 8 8 8 8 8 8 8 7 7
10 10 10 10 10 10 10 10 10 10 10 9 9 9 9 9 9 9 9 8 8 8 8 8 8 8 8 8 8 8 8 8 8 8 8 8 8 8 8 8 7 7 7
Wind_Speed
8 7 6 6 5 4 4 4 5 5 7 7 8 9 9 9 9 9 8 8 6 4 4 6 8 8 8 8 9 9 9 9 8 5 6 7 11 9 8 7 6 6 6
10 9 7 6 5 5 5 5 6 6 7 8 8 9 10 10 10 9 9 8 6 4 4 6 9 8 10 9 9 10 10 10 9 9 6 7 11 10 9 8 7 5 5
11 10 9 8 7 6 5 6 6 7 8 8 8 9 10 10 10 10 9 9 9 9 8 9 11 11 12 10 11 11 10 9 9 8 7 6 7 8 10 8 8 7 6
11 11 10 9 8 7 7 7 7 8 9 9 9 9 9 10 10 10 11 12 12 12 12 13 13 13 13 12 11 13 11 10 10 9 8 7 7 8 9 9 8 8 7
11 11 10 9 8 7 7 8 9 9 9 9 9 8 9 8 9 10 10 11 12 13 13 14 14 13 12 10 9 11 11 10 10 10 10 9 9 8 10 9 8 8 8
10 9 8 8 8 8 8 9 9 10 10 10 10 10 9 8 7 7 9 10 11 12 13 13 12 12 14 14 14 12 10 12 12 12 11 12 13 13 10 9 9 8 6
7 7 7 8 9 9 9 9 10 10 11 11 11 11 11 10 8 9 10 9 10 11 11 11 10 10 11 11 14 16 14 14 13 13 13 15 13 13 13 12 11 10 7
4 5 6 7 8 8 9 10 10 9 10 10 11 11 10 9 9 9 8 11 11 10 11 11 11 11 10 11 10 11 12 14 15 15 13 11 8 8 12 11 10 9 7
3 2 2 4 6 7 9 10 9 9 9 9 9 10 10 9 9 9 9 9 9 10 9 8 9 9 8 8 9 8 8 8 10 11 6 0 4 8 9 8 8 9 8
7 6 4 2 3 5 7 8 7 8 8 8 8 8 9 8 8 7 9 8 8 7 6 6 5 6 6 9 8 7 7 6 5 7 8 7 7 11 14 12 9 10 9
7 7 7 5 3 1 3 4 6 7 8 8 8 7 6 5 6 5 8 8 6 5 5 4 4 6 5 6 6 4 2 2 4 5 6 7 7 8 10 11 9 9 9
7 7 8 7 6 4 2 1 3 6 7 8 8 7 5 5 4 6 8 9 6 5 4 3 4 7 6 6 4 2 3 2 3 4 4 5 6 6 6 8 9 9 8
6 7 6 6 6 5 4 3 3 4 5 6 7 7 7 6 5 6 7 8 6 4 2 6 7 8 8 6 4 4 4 3 3 4 4 5 5 6 6 5 7 7 8
6 6 6 6 6 6 5 3 3 4 5 5 6 6 5 5 5 5 6 6 7 6 6 8 8 6 5 5 7 6 5 4 3 3 3 3 3 5 5 5 5 5 5
4 5 5 6 6 6 6 6 4 5 4 2 2 2 3 3 1 1 3 5 6 6 8 7 7 7 6 5 5 5 5 5 5 4 4 4 4 4 5 6 6 6 6
4 5 4 5 5 5 5 6 11 10 10 9 8 6 4 4 2 1 2 3 6 7 5 5 4 4 4 4 5 5 5 5 5 5 5 5 5 5 5 5 5 7 8
4 3 3 3 3 3 3 4 5 6 9 11 10 9 7 6 4 3 6 7 7 4 3 3 2 2 2 3 3 3 4 4 4 4 4 5 5 5 5 6 7 7 8
3 3 2 2 2 1 2 2 2 3 4 5 7 8 8 8 9 10 10 8 4 1 1 1 1 2 2 3 3 4 4 4 4 5 5 5 6 6 6 6 7 8 8
1 2 2 2 1 2 2 2 2 4 4 4 3 4 6 7 8 5 1 2 3 2 1 2 2 2 3 3 4 4 5 5 5 5 5 6 6 6 7 7 7 8 9
2 3 2 1 2 2 2 2 3 4 4 4 4 3 2 2 3 2 1 1 1 1 2 2 2 3 4 4 4 5 5 5 6 6 6 6 6 6 7 8 7 7 7
3 4 3 2 1 2 2 3 4 4 4 4 4 4 4 2 3 2 1 0 1 1 1 2 2 3 3 4 4 5 6 6 6 6 6 6 6 6 6 6 6 6 6
4 4 4 3 2 2 2 3 3 4 4 4 4 3 0 1 2 2 1 1 0 1 1 1 2 2 3 4 4 5 5 6 6 6 6 6 6 6 6 6 6 5 5
5 5 4 3 3 3 3 3 3 3 4 4 4 3 2 2 2 2 2 2 1 1 1 2 2 2 2 3 3 4 5 5 5 5 6 6 6 6 6 6 7 6 6
6 5 4 4 4 4 4 4 4 4 4 4 4 4 3 3 3 3 3 2 2 2 2 3 3 4 5 4 4 4 5 6 6 5 7 6 6 5 5 5 5 6 5
6 5 5 4 5 5 4 4 4 5 4 4 4 4 3 3 3 4 4 4 4 4 5 5 5 6 7 8 7 7 9 10 8 6 5 5 5 5 5 5 4 4 5
7 6 5 4 4 4 4 4 4 4 4 4 4 4 3 3 4 4 4 4 4 5 6 5 8 9 10 9 10 12 12 10 8 6 5 3 3 3 3 3 4 4 5
Wind_Direction
191 194 196 194 190 190 193 193 194 192 188 188 181 174 165 161 157 149 146 149 158 186 229 244 244 236 227 222 223 228 235 238 237 215 172 177 181 191 177 201 188 199 151
190 192 200 194 193 202 197 193 192 191 194 196 186 180 172 166 162 157 154 153 159 187 235 256 256 243 235 230 224 227 229 233 229 215 181 197 195 193 187 193 198 206 190
186 191 197 200 203 211 207 197 196 194 196 200 198 191 185 180 177 177 175 177 189 204 219 238 251 245 236 231 228 231 230 229 229 216 185 180 198 197 194 197 204 200 203
187 193 203 207 207 212 210 204 205 201 200 201 199 198 193 189 191 193 195 200 206 211 218 228 238 241 241 239 233 233 228 222 220 216 190 179 182 196 197 198 201 198 206
194 202 209 212 211 213 209 210 210 208 208 204 198 199 198 201 206 207 208 214 218 221 224 229 235 238 248 252 246 238 224 218 215 215 208 195 189 181 199 199 202 195 201
206 215 215 218 214 215 214 213 211 208 211 207 208 207 205 209 191 206 231 231 231 233 235 235 234 231 235 236 243 249 241 225 219 219 218 217 211 203 192 189 194 192 201
213 221 218 218 218 219 215 213 210 209 209 212 215 214 216 209 181 203 222 242 242 245 246 243 235 231 224 227 224 224 232 240 246 241 232 232 227 204 188 189 197 201 211
231 238 231 225 222 218 215 213 212 210 205 209 213 215 219 213 191 210 215 238 246 246 244 243 238 229 217 217 217 218 223 222 226 236 245 249 240 198 191 197 202 208 205
28 338 284 242 229 220 216 216 212 209 206 207 210 212 214 209 190 206 220 239 245 245 242 238 234 226 196 208 218 221 231 232 224 230 261 295 143 173 186 194 189 189 200
37 25 17 351 245 230 225 219 208 207 209 203 206 211 214 214 178 200 228 239 240 236 231 227 221 235 188 200 220 221 229 226 215 211 210 185 187 188 188 201 195 204 212
37 37 37 33 18 300 242 218 202 200 201 197 195 195 200 202 172 204 234 247 243 235 221 215 195 174 185 199 242 236 215 185 193 210 201 193 195 195 196 215 216 218 223
44 44 43 37 33 35 46 145 181 185 185 182 178 175 180 187 198 199 225 243 277 241 225 199 155 151 169 186 210 117 113 160 171 178 181 184 189 191 195 208 221 216 230
42 43 42 45 45 45 61 100 128 154 162 168 173 174 177 181 184 201 220 220 231 242 142 92 119 147 162 175 165 161 179 195 188 191 198 197 194 193 188 193 210 220 225
33 32 29 32 44 52 57 78 111 135 151 162 170 176 179 185 195 203 206 190 182 178 145 128 129 140 159 135 161 182 196 192 203 208 204 195 182 184 182 177 185 189 203
27 33 37 46 50 55 57 41 41 59 47 64 115 147 174 185 138 310 252 201 188 173 161 164 166 169 175 181 188 193 195 190 200 205 202 196 198 199 194 184 185 186 198
28 36 42 56 67 74 86 81 51 55 59 54 45 37 70 48 15 257 206 113 118 146 182 183 183 191 196 196 196 196 202 207 210 210 213 212 213 217 215 198 198 205 214
43 44 50 55 70 86 101 116 115 90 76 68 62 54 50 42 55 112 126 126 131 168 214 188 184 202 221 230 234 235 225 214 216 222 230 234 232 229 225 218 212 219 227
59 66 54 60 57 87 94 87 102 127 121 91 69 58 56 64 81 102 121 129 125 183 223 191 195 214 229 238 236 237 241 236 235 238 238 241 242 239 236 233 229 229 233
84 74 67 61 62 84 93 93 91 92 99 103 102 83 75 87 93 94 143 147 147 172 204 235 248 250 250 252 252 251 248 247 246 247 248 248 249 246 243 240 239 238 240
126 77 29 69 110 110 106 98 98 105 108 105 98 95 123 153 126 120 102 82 155 198 224 241 251 259 263 263 262 262 262 258 255 254 257 256 253 252 253 252 246 241 239
163 152 177 201 121 102 98 100 106 112 109 104 93 75 14 67 93 104 115 175 266 272 275 284 290 286 280 277 273 267 266 269 266 264 264 261 255 251 250 252 250 246 241
178 175 181 173 152 132 114 120 124 123 121 118 111 114 354 22 67 75 75 67 27 332 309 280 271 273 276 276 274 270 267 265 266 264 261 259 255 252 251 245 240 235 230
179 176 178 172 161 148 161 137 129 124 123 121 119 121 128 99 79 65 63 53 38 26 334 308 305 301 296 290 281 270 271 272 271 271 264 256 249 244 242 242 241 235 224
175 175 173 165 162 163 155 140 128 122 120 123 126 124 118 109 88 68 53 39 28 26 14 355 353 350 349 342 326 311 298 297 291 276 263 255 248 243 238 241 243 240 236
171 167 164 158 155 156 152 149 140 132 129 125 116 106 94 81 72 58 40 35 35 39 39 34 24 18 13 14 6 351 337 323 304 290 276 264 255 243 235 234 233 229 218
169 166 161 157 160 161 160 159 148 139 133 125 115 107 97 82 70 58 44 36 37 44 44 41 31 24 14 5 357 349 345 336 322 299 278 275 268 258 244 237 230 222 215
Height
1485 1486 1487 1488 1488 1489 1490 1490 1490 1491 1491 1492 1493 1495 1496 1498 1499 1501 1503 1506 1511 1516 1520 1524 1528 1531 1533 1534 1535 1537 1538 1540 1541 1543 1543 1543 1544 1546 1546 1547 1547 1547 1547
1482 1484 1485 1486 1487 1488 1489 1489 1490 1490 1491 1492 1493 1495 1497 1498 1500 1502 1504 1506 1510 1514 1517 1521 1524 1527 1529 1530 1531 1533 1534 1535 1537 1539 1539 1540 1542 1543 1544 1544 1545 1545 1546
1480 1481 1483 1484 1485 1486 1488 1488 1489 1490 1491 1492 1493 1495 1497 1499 1501 1503 1505 1507 1510 1513 1515 1518 1521 1523 1525 1526 1526 1528 1529 1530 1531 1533 1534 1535 1537 1539 1540 1542 1542 1543 1543
1477 1479 1481 1483 1483 1484 1485 1486 1487 1489 1490 1492 1493 1495 1497 1498 1500 1502 1505 1507 1509 1511 1513 1515 1517 1519 1520 1521 1522 1523 1524 1525 1526 1528 1529 1530 1532 1534 1536 1538 1539 1540 1541
1475 1477 1478 1480 1481 1482 1483 1483 1485 1487 1489 1491 1492 1494 1496 1497 1500 1502 1503 1505 1507 1508 1510 1511 1512 1514 1515 1516 1517 1517 1518 1519 1521 1522 1524 1526 1527 1529 1531 1533 1535 1537 1538
1473 1474 1476 1477 1478 1479 1480 1481 1482 1483 1485 1487 1489 1491 1494 1495 1497 1499 1501 1502 1504 1505 1506 1507 1507 1508 1509 1510 1510 1511 1512 1514 1516 1517 1519 1520 1521 1523 1526 1529 1531 1533 1534
1470 1472 1472 1473 1474 1475 1476 1478 1479 1480 1482 1484 1486 1488 1490 1492 1494 1496 1497 1499 1500 1501 1501 1502 1502 1502 1503 1504 1504 1505 1506 1508 1510 1512 1513 1515 1517 1518 1520 1523 1526 1529 1531
1467 1468 1469 1469 1470 1471 1472 1474 1476 1477 1479 1480 1482 1484 1487 1489 1491 1492 1494 1495 1496 1496 1496 1497 1497 1497 1498 1499 1500 1500 1502 1503 1504 1506 1508 1510 1512 1513 1515 1519 1522 1525 1528
1464 1464 1464 1464 1465 1466 1468 1469 1471 1473 1475 1477 1479 1481 1483 1485 1487 1489 1490 1491 1492 1492 1492 1492 1492 1493 1494 1494 1496 1497 1498 1499 1500 1501 1502 1503 1505 1507 1510 1513 1517 1520 1522
1461 1461 1460 1460 1460 1461 1462 1464 1465 1468 1470 1472 1474 1476 1479 1481 1483 1485 1487 1488 1489 1489 1488 1488 1488 1489 1490 1491 1492 1494 1494 1495 1496 1497 1498 1499 1500 1502 1505 1508 1511 1515 1518
1460 1459 1458 1457 1457 1456 1457 1458 1460 1462 1464 1467 1469 1471 1474 1477 1479 1481 1483 1485 1485 1486 1485 1485 1485 1485 1487 1488 1490 1491 1492 1492 1493 1494 1494 1495 1497 1498 1500 1503 1507 1509 1513
1460 1459 1457 1456 1455 1454 1454 1454 1455 1457 1459 1462 1465 1467 1470 1473 1475 1477 1480 1481 1481 1482 1482 1481 1481 1482 1484 1485 1487 1488 1489 1489 1490 1491 1491 1492 1493 1495 1497 1499 1502 1504 1506
1461 1460 1458 1457 1455 1454 1453 1453 1453 1455 1457 1460 1462 1465 1468 1470 1472 1474 1476 1477 1478 1478 1478 1478 1479 1480 1481 1483 1484 1485 1486 1487 1487 1488 1488 1489 1490 1492 1493 1495 1497 1499 1501
1463 1461 1460 1459 1457 1455 1454 1454 1455 1456 1458 1460 1462 1464 1467 1468 1470 1472 1473 1474 1474 1475 1476 1476 1477 1478 1479 1481 1482 1483 1483 1484 1484 1485 1485 1486 1487 1488 1489 1490 1492 1493 1495
1464 1463 1462 1460 1458 1457 1456 1456 1457 1458 1459 1461 1463 1465 1466 1467 1468 1469 1469 1471 1472 1473 1474 1475 1476 1477 1478 1479 1479 1480 1480 1481 1481 1482 1482 1483 1483 1484 1485 1486 1487 1488 1489
1465 1464 1463 1462 1461 1460 1459 1459 1460 1460 1461 1462 1463 1464 1464 1465 1465 1466 1467 1468 1469 1471 1472 1473 1474 1475 1476 1477 1477 1477 1477 1478 1478 1478 1479 1479 1480 1480 1481 1482 1482 1483 1484
1466 1465 1464 1464 1463 1463 1462 1462 1462 1462 1462 1463 1463 1463 1463 1463 1464 1464 1465 1466 1467 1469 1471 1472 1472 1473 1473 1474 1474 1475 1475 1475 1475 1475 1475 1476 1476 1476 1476 1477 1477 1477 1478
1467 1466 1465 1465 1464 1464 1464 1464 1463 1463 1463 1462 1462 1462 1462 1463 1463 1464 1464 1466 1467 1468 1469 1470 1470 1471 1471 1471 1472 1471 1471 1471 1471 1471 1471 1471 1471 1471 1471 1472 1472 1472 1472
1467 1467 1466 1465 1465 1465 1464 1464 1464 1463 1463 1463 1462 1462 1462 1463 1463 1464 1465 1466 1466 1467 1468 1468 1469 1469 1469 1469 1469 1469 1469 1468 1468 1468 1468 1467 1467 1467 1466 1466 1466 1466 1466
1467 1467 1466 1466 1466 1466 1465 1465 1465 1464 1464 1464 1464 1463 1463 1464 1464 1465 1465 1466 1466 1467 1467 1467 1467 1467 1467 1466 1466 1466 1466 1465 1465 1464 1464 1463 1463 1462 1461 1461 1461 1460 1459
1467 1467 1466 1467 1467 1467 1467 1466 1466 1465 1465 1466 1466 1465 1465 1465 1465 1465 1466 1466 1466 1466 1466 1466 1466 1465 1464 1464 1463 1462 1462 1461 1461 1460 1460 1459 1458 1458 1457 1456 1456 1455 1454
1466 1466 1467 1467 1467 1467 1467 1467 1467 1467 1467 1467 1467 1467 1467 1466 1466 1466 1466 1466 1466 1466 1466 1465 1465 1464 1462 1461 1460 1459 1458 1457 1457 1456 1455 1454 1454 1453 1453 1452 1451 1450 1449
1465 1466 1466 1466 1466 1467 1467 1467 1467 1467 1468 1468 1468 1468 1468 1468 1468 1467 1467 1467 1466 1466 1465 1464 1463 1462 1461 1459 1458 1457 1455 1454 1453 1451 1450 1449 1449 1448 1448 1447 1447 1446 1446
1464 1465 1465 1466 1466 1467 1468 1468 1468 1468 1468 1469 1469 1469 1469 1469 1469 1468 1468 1467 1466 1465 1464 1463 1462 1461 1459 1458 1456 1454 1453 1451 1449 1448 1446 1445 1444 1444 1443 1443 1442 1441 1441
1463 1464 1465 1466 1467 1467 1468 1469 1469 1469 1469 1469 1470 1470 1469 1469 1469 1468 1467 1466 1465 1464 1463 1461 1460 1459 1457 1456 1454 1452 1450 1449 1447 1445 1443 1442 1441 1440 1439 1438 1437 1436 1436
1462 1464 1465 1466 1466 1467 1468 1469 1469 1470 1470 1470 1470 1470 1469 1469 1469 1468 1467 1465 1464 1463 1461 1460 1458 1457 1455 1454 1452 1450 1448 1446 1444 1442 1440 1439 1438 1437 1435 1434 1433 1432 1431